Home > Weather > Ghazni > Past weeks

Flag for Afghanistan Past Weather in Ghazni, Afghanistan — Yesterday and Last 2 Weeks

Now
90 °F

Passing clouds.


Feels Like: 92 °F
Forecast: 62 / 83 °F
Wind: 12 mph from Northwest

Location: Peshawar Airport

Current Time: Jun 28, 2016 at 11:14:15 PM

Latest Report: Jun 28, 2016 at 10:30 PM


Visibility: 2 mi

Pressure: 29.62 "Hg (23.19 "Hg at 2184m altitude)

Humidity: 46%

Dew Point: 66 °F

Location of GhazniLocation

Past Weather in Ghazni — Graph

°F

Ghazni Temperature Yesterday

Maximum temperature yesterday: 102 °F (at 12:30 PM)
Minimum temperature yesterday: 81 °F (at 10:30 PM)
Average temperature yesterday: 91 °F

High & Low Weather Summary for the Past Weeks

 TemperatureHumidityPressure
High108 °F (Jun 14, 3:30 PM)100% (Jun 15, 2:30 PM)30.18 "Hg (Jun 15, 2:30 PM)
Low72 °F (Jun 15, 2:30 PM)23% (Jun 15, 12:30 PM)29.47 "Hg (Jun 16, 4:30 PM)
Average92 °F42%29.59 "Hg
* Reported Jun 13 9:30 PM — Jun 28 9:30 PM, Ghazni, Weather by CustomWeather, © 2016

Note: Actual official high and low records may vary slightly from our data, if they occured in-between our weather recording intervals... More about our weather records

Advertising

Ghazni Weather History for the Previous 24 Hours

Scroll right to see more
 ConditionsComfort  
Time TempWeatherWind HumidityBarometerVisibility
9:30 PM
Tue, Jun 28
90 °FPassing clouds.12 mph46%29.59 "Hg2 mi
9:00 PM91 °FPassing clouds.14 mph46%29.59 "Hg2 mi
8:30 PM91 °FPassing clouds.14 mph46%29.59 "Hg2 mi
8:00 PM91 °FPassing clouds.12 mph46%29.59 "Hg2 mi
7:30 PM91 °FPassing clouds.12 mph46%29.59 "Hg2 mi
6:30 PM93 °FScattered clouds.14 mph44%29.59 "Hg2 mi
5:30 PM95 °FScattered clouds.12 mph41%29.59 "Hg2 mi
5:00 PM97 °FScattered clouds.14 mph42%29.59 "Hg2 mi
4:30 PM97 °FScattered clouds.14 mph42%29.59 "Hg2 mi
4:00 PM97 °FScattered clouds.12 mph42%29.62 "Hg2 mi
3:30 PM97 °FScattered clouds.12 mph42%29.62 "Hg2 mi
3:00 PM99 °FScattered clouds.9 mph39%29.62 "Hg2 mi
2:30 PM99 °FScattered clouds.9 mph39%29.62 "Hg2 mi
2:00 PM99 °FScattered clouds.9 mph39%29.65 "Hg2 mi
1:30 PM99 °FScattered clouds.9 mph39%29.65 "Hg2 mi
1:00 PM97 °FScattered clouds.14 mph42%29.65 "Hg2 mi
12:30 PM97 °FScattered clouds.14 mph42%29.65 "Hg2 mi
12:00 PM95 °FScattered clouds.14 mph44%29.68 "Hg2 mi
11:30 AM95 °FScattered clouds.14 mph44%29.68 "Hg2 mi
11:00 AM93 °FScattered clouds.14 mph49%29.68 "Hg2 mi
10:30 AM93 °FScattered clouds.14 mph49%29.68 "Hg2 mi
10:00 AM88 °FScattered clouds.12 mph55%29.68 "Hg2 mi
9:30 AM88 °FScattered clouds.12 mph55%29.68 "Hg2 mi
9:00 AM88 °FScattered clouds.12 mph55%29.68 "Hg2 mi
8:30 AM88 °FHaze.12 mph55%29.68 "Hg2 mi
8:00 AM86 °FScattered clouds.7 mph59%29.68 "Hg2 mi
7:30 AM86 °FScattered clouds.7 mph59%29.68 "Hg2 mi
6:30 AM84 °FHaze.5 mph62%29.62 "Hg2 mi
5:30 AM81 °FScattered clouds.5 mph70%29.59 "Hg2 mi
4:29 AM79 °FPassing clouds.5 mph74%29.59 "Hg2 mi
3:30 AM79 °FHaze.7 mph65%29.59 "Hg2 mi
2:30 AM81 °FPassing clouds.7 mph62%29.59 "Hg2 mi
1:30 AM81 °FThundershowers. Passing clouds.7 mph62%29.59 "Hg2 mi
12:30 AM81 °FHaze.5 mph51%29.59 "Hg2 mi
11:30 PM
Mon, Jun 27
81 °FHaze.5 mph51%29.62 "Hg2 mi
Weather by CustomWeather, © 2016

See weather overviewHow to use our weather pages